PKDRM WIPP-WILL

Flight info

Callsign PKDRM
Flight time 1h 6m
Altitude 5000
Route BANJR DCT LL601 DCT LL602
Aircraft P28R/L-SDGRY/S

Departure

Time 2026-04-21 12:29
Airport Sultan Mahmud Badaruddin II Airport (WIPP)

Arrival

Time 2026-04-21 13:35
Airport Radin Inten II International Airport (WILL)
Time Latitude Longitude Altitude Speed Heading
2026-04-21 12:14 -2.89911 104.69913 14 ft 0 kts 22°
2026-04-21 12:25 -2.89909 104.69915 15 ft 1 kts 86°
2026-04-21 12:25 -2.89918 104.69921 15 ft 2 kts 153°
2026-04-21 12:26 -2.89932 104.69929 15 ft 3 kts 149°
2026-04-21 12:26 -2.89948 104.69958 15 ft 5 kts 110°
2026-04-21 12:26 -2.89958 104.69984 15 ft 5 kts 110°
2026-04-21 12:26 -2.89976 104.70040 15 ft 9 kts 81°
2026-04-21 12:27 -2.89943 104.70066 15 ft 5 kts 10°
2026-04-21 12:27 -2.89925 104.70076 15 ft 1 kts 28°
2026-04-21 12:27 -2.89905 104.70078 16 ft 6 kts 353°
2026-04-21 12:27 -2.89858 104.70057 16 ft 7 kts 299°
2026-04-21 12:28 -2.89855 104.70049 16 ft 0 kts 289°
2026-04-21 12:28 -2.89853 104.70044 16 ft 2 kts 292°
2026-04-21 12:28 -2.89807 104.69935 16 ft 43 kts 291°
2026-04-21 12:28 -2.89613 104.69486 28 ft 93 kts 291°
2026-04-21 12:29 -2.89285 104.68879 249 ft 102 kts 294°
2026-04-21 12:29 -2.88985 104.68370 1117 ft 27 kts 298°
2026-04-21 12:29 -2.88822 104.68080 649 ft 115 kts 303°
2026-04-21 12:29 -2.88371 104.67468 1085 ft 88 kts 321°
2026-04-21 12:30 -2.87926 104.67240 1488 ft 62 kts 339°
2026-04-21 12:30 -2.87642 104.66945 1693 ft 58 kts 305°
2026-04-21 12:30 -2.87505 104.66581 1893 ft 60 kts 277°
2026-04-21 12:30 -2.87519 104.66155 2078 ft 60 kts 264°
2026-04-21 12:31 -2.87720 104.65789 2283 ft 63 kts 226°
2026-04-21 12:31 -2.88044 104.65535 2507 ft 60 kts 198°
2026-04-21 12:31 -2.88456 104.65463 2739 ft 58 kts 171°
2026-04-21 12:31 -2.88862 104.65538 2900 ft 62 kts 157°
2026-04-21 12:32 -2.89323 104.65627 3070 ft 72 kts 165°
2026-04-21 12:32 -2.89843 104.65700 3225 ft 81 kts 169°
2026-04-21 12:32 -2.90465 104.65799 3195 ft 98 kts 168°
2026-04-21 12:32 -2.91170 104.65919 3111 ft 106 kts 168°
2026-04-21 12:33 -2.91918 104.66048 3017 ft 110 kts 168°
2026-04-21 12:33 -2.92671 104.66181 2975 ft 108 kts 168°
2026-04-21 12:33 -2.93394 104.66308 2971 ft 103 kts 168°
2026-04-21 12:33 -2.94095 104.66433 2969 ft 102 kts 167°
2026-04-21 12:34 -2.94784 104.66560 2968 ft 101 kts 165°
2026-04-21 12:34 -2.95479 104.66697 2962 ft 101 kts 165°
2026-04-21 12:34 -2.96166 104.66836 2962 ft 101 kts 166°
2026-04-21 12:34 -2.96857 104.66980 2966 ft 102 kts 163°
2026-04-21 12:35 -2.97552 104.67130 2962 ft 102 kts 164°
2026-04-21 12:35 -2.98235 104.67280 2995 ft 98 kts 164°
2026-04-21 12:35 -2.98881 104.67427 3084 ft 93 kts 162°
2026-04-21 12:35 -2.99503 104.67574 3172 ft 91 kts 163°
2026-04-21 12:36 -3.00118 104.67729 3265 ft 92 kts 161°
2026-04-21 12:36 -3.00729 104.67891 3354 ft 90 kts 161°
2026-04-21 12:36 -3.01338 104.68065 3449 ft 92 kts 159°
2026-04-21 12:36 -3.01948 104.68247 3541 ft 91 kts 158°
2026-04-21 12:37 -3.02549 104.68436 3639 ft 90 kts 156°
2026-04-21 12:37 -3.03141 104.68633 3729 ft 89 kts 156°
2026-04-21 12:37 -3.03730 104.68840 3826 ft 90 kts 154°
2026-04-21 12:37 -3.04319 104.69056 3918 ft 89 kts 154°
2026-04-21 12:38 -3.04893 104.69278 4016 ft 89 kts 153°
2026-04-21 12:38 -3.05469 104.69513 4109 ft 90 kts 153°
2026-04-21 12:38 -3.06038 104.69754 4202 ft 88 kts 152°
2026-04-21 12:38 -3.06617 104.69958 4283 ft 92 kts 179°
2026-04-21 12:39 -3.07234 104.69837 4363 ft 89 kts 166°
2026-04-21 12:39 -3.07825 104.69968 4462 ft 89 kts 163°
2026-04-21 12:39 -3.08422 104.70094 4559 ft 87 kts 163°
2026-04-21 12:39 -3.09012 104.70227 4656 ft 87 kts 162°
2026-04-21 12:40 -3.09598 104.70364 4751 ft 87 kts 162°
2026-04-21 12:40 -3.10189 104.70505 4838 ft 92 kts 163°
2026-04-21 12:40 -3.10864 104.70668 4950 ft 108 kts 163°
2026-04-21 12:40 -3.11659 104.70860 4970 ft 126 kts 163°
2026-04-21 12:41 -3.12563 104.71077 4968 ft 140 kts 163°
2026-04-21 12:41 -3.13538 104.71312 4963 ft 148 kts 163°
2026-04-21 12:41 -3.14547 104.71556 4964 ft 151 kts 164°
2026-04-21 12:41 -3.15572 104.71806 4963 ft 152 kts 164°
2026-04-21 12:42 -3.16603 104.72057 4961 ft 152 kts 164°
2026-04-21 12:42 -3.17631 104.72307 4959 ft 153 kts 164°
2026-04-21 12:42 -3.18684 104.72564 4959 ft 159 kts 164°
2026-04-21 12:42 -3.19771 104.72829 4959 ft 161 kts 165°
2026-04-21 12:43 -3.20852 104.73093 4945 ft 157 kts 165°
2026-04-21 12:43 -3.21904 104.73349 4950 ft 155 kts 165°
2026-04-21 12:43 -3.22599 104.73518 4951 ft 156 kts 164°
2026-04-21 12:43 -3.24009 104.73861 4944 ft 155 kts 165°
2026-04-21 12:44 -3.24702 104.74030 4944 ft 155 kts 164°
2026-04-21 12:44 -3.26105 104.74372 4941 ft 155 kts 164°
2026-04-21 12:44 -3.27153 104.74627 4939 ft 155 kts 164°
2026-04-21 12:44 -3.27847 104.74797 4942 ft 155 kts 163°
2026-04-21 12:45 -3.28895 104.75052 4941 ft 155 kts 163°
2026-04-21 12:45 -3.29938 104.75306 4938 ft 154 kts 164°
2026-04-21 12:45 -3.30978 104.75560 4937 ft 154 kts 164°
2026-04-21 12:45 -3.32016 104.75813 4942 ft 154 kts 164°
2026-04-21 12:46 -3.33060 104.76068 4941 ft 154 kts 164°
2026-04-21 12:46 -3.34102 104.76322 4941 ft 154 kts 164°
2026-04-21 12:46 -3.35147 104.76577 4943 ft 155 kts 164°
2026-04-21 12:46 -3.36196 104.76832 4942 ft 155 kts 164°
2026-04-21 12:47 -3.37244 104.77088 4943 ft 156 kts 164°
2026-04-21 12:47 -3.38297 104.77344 4942 ft 156 kts 164°
2026-04-21 12:47 -3.39347 104.77601 4943 ft 155 kts 164°
2026-04-21 12:47 -3.40398 104.77857 4945 ft 155 kts 164°
2026-04-21 12:48 -3.41444 104.78112 4946 ft 155 kts 165°
2026-04-21 12:48 -3.42492 104.78367 4946 ft 155 kts 164°
2026-04-21 12:48 -3.43537 104.78622 4945 ft 154 kts 164°
2026-04-21 12:48 -3.44580 104.78877 4940 ft 154 kts 164°
2026-04-21 12:49 -3.45625 104.79131 4939 ft 155 kts 164°
2026-04-21 12:49 -3.46669 104.79386 4939 ft 154 kts 164°
2026-04-21 12:49 -3.47711 104.79640 4938 ft 154 kts 165°
2026-04-21 12:49 -3.48751 104.79894 4941 ft 154 kts 165°
2026-04-21 12:50 -3.49793 104.80148 4940 ft 154 kts 164°
2026-04-21 12:50 -3.50836 104.80402 4941 ft 154 kts 164°
2026-04-21 12:50 -3.51878 104.80656 4939 ft 154 kts 164°
2026-04-21 12:50 -3.52917 104.80909 4942 ft 154 kts 163°
2026-04-21 12:51 -3.53959 104.81164 4942 ft 155 kts 164°
2026-04-21 12:51 -3.54991 104.81416 4943 ft 154 kts 164°
2026-04-21 12:51 -3.56051 104.81674 4942 ft 155 kts 163°
2026-04-21 12:51 -3.57096 104.81929 4947 ft 155 kts 163°
2026-04-21 12:52 -3.58125 104.82180 4944 ft 154 kts 164°
2026-04-21 12:52 -3.59169 104.82435 4944 ft 154 kts 165°
2026-04-21 12:52 -3.60214 104.82689 4945 ft 155 kts 164°
2026-04-21 12:52 -3.61259 104.82944 4942 ft 155 kts 164°
2026-04-21 12:53 -3.62307 104.83201 4943 ft 155 kts 164°
2026-04-21 12:53 -3.63357 104.83459 4942 ft 155 kts 163°
2026-04-21 12:53 -3.64406 104.83718 4943 ft 156 kts 163°
2026-04-21 12:53 -3.65457 104.83979 4943 ft 155 kts 163°
2026-04-21 12:54 -3.66502 104.84239 4945 ft 154 kts 163°
2026-04-21 12:54 -3.67544 104.84500 4946 ft 154 kts 163°
2026-04-21 12:54 -3.68583 104.84760 4946 ft 154 kts 163°
2026-04-21 12:54 -3.69334 104.84949 4947 ft 153 kts 163°
2026-04-21 12:55 -3.70369 104.85211 4946 ft 153 kts 163°
2026-04-21 12:55 -3.71406 104.85474 4946 ft 154 kts 163°
2026-04-21 12:55 -3.72443 104.85738 4949 ft 154 kts 163°
2026-04-21 12:55 -3.73485 104.86004 4943 ft 154 kts 163°
2026-04-21 12:56 -3.74523 104.86271 4944 ft 154 kts 163°
2026-04-21 12:56 -3.75563 104.86540 4943 ft 154 kts 163°
2026-04-21 12:56 -3.76602 104.86810 4944 ft 155 kts 163°
2026-04-21 12:56 -3.77645 104.87082 4943 ft 155 kts 162°
2026-04-21 12:57 -3.78686 104.87355 4944 ft 155 kts 162°
2026-04-21 12:57 -3.79731 104.87631 4944 ft 156 kts 162°
2026-04-21 12:57 -3.80777 104.87908 4943 ft 155 kts 162°
2026-04-21 12:57 -3.81822 104.88186 4945 ft 155 kts 162°
2026-04-21 12:58 -3.82863 104.88464 4946 ft 155 kts 162°
2026-04-21 12:58 -3.83890 104.88739 4947 ft 155 kts 162°
2026-04-21 12:58 -3.84929 104.89020 4947 ft 155 kts 162°
2026-04-21 12:58 -3.85967 104.89301 4944 ft 154 kts 162°
2026-04-21 12:59 -3.86999 104.89583 4944 ft 154 kts 162°
2026-04-21 12:59 -3.88031 104.89865 4944 ft 153 kts 162°
2026-04-21 12:59 -3.89060 104.90147 4944 ft 153 kts 162°
2026-04-21 12:59 -3.90088 104.90431 4943 ft 153 kts 162°
2026-04-21 13:00 -3.91116 104.90716 4942 ft 153 kts 162°
2026-04-21 13:00 -3.92138 104.91002 4944 ft 153 kts 162°
2026-04-21 13:00 -3.93163 104.91290 4943 ft 153 kts 162°
2026-04-21 13:00 -3.94189 104.91581 4945 ft 153 kts 162°
2026-04-21 13:01 -3.95214 104.91872 4950 ft 153 kts 162°
2026-04-21 13:01 -3.96243 104.92166 4949 ft 153 kts 162°
2026-04-21 13:01 -3.97268 104.92461 4950 ft 154 kts 161°
2026-04-21 13:01 -3.98297 104.92759 4952 ft 154 kts 162°
2026-04-21 13:02 -3.99325 104.93058 4951 ft 154 kts 162°
2026-04-21 13:02 -4.00348 104.93356 4948 ft 153 kts 161°
2026-04-21 13:02 -4.02386 104.93955 4950 ft 153 kts 161°
2026-04-21 13:03 -4.03404 104.94255 4949 ft 153 kts 161°
2026-04-21 13:03 -4.04423 104.94558 4948 ft 153 kts 161°
2026-04-21 13:03 -4.05439 104.94861 4944 ft 152 kts 160°
2026-04-21 13:03 -4.06450 104.95163 4947 ft 151 kts 160°
2026-04-21 13:04 -4.07458 104.95466 4949 ft 151 kts 160°
2026-04-21 13:04 -4.08465 104.95770 4948 ft 151 kts 160°
2026-04-21 13:04 -4.09474 104.96078 4947 ft 152 kts 160°
2026-04-21 13:04 -4.10474 104.96384 4944 ft 152 kts 160°
2026-04-21 13:05 -4.11486 104.96697 4945 ft 152 kts 160°
2026-04-21 13:05 -4.12499 104.97011 4944 ft 152 kts 160°
2026-04-21 13:05 -4.13511 104.97328 4948 ft 153 kts 160°
2026-04-21 13:05 -4.14524 104.97649 4946 ft 152 kts 160°
2026-04-21 13:06 -4.15532 104.97970 4946 ft 152 kts 159°
2026-04-21 13:06 -4.16536 104.98293 4945 ft 152 kts 159°
2026-04-21 13:06 -4.17539 104.98617 4943 ft 151 kts 159°
2026-04-21 13:06 -4.18542 104.98944 4940 ft 151 kts 159°
2026-04-21 13:07 -4.19544 104.99272 4943 ft 152 kts 159°
2026-04-21 13:07 -4.20548 104.99602 4941 ft 152 kts 159°
2026-04-21 13:07 -4.21553 104.99934 4942 ft 152 kts 159°
2026-04-21 13:07 -4.22559 105.00269 4945 ft 152 kts 159°
2026-04-21 13:08 -4.23579 105.00559 4945 ft 154 kts 166°
2026-04-21 13:08 -4.24637 105.00749 4945 ft 155 kts 167°
2026-04-21 13:08 -4.25686 105.00963 4945 ft 153 kts 166°
2026-04-21 13:08 -4.26721 105.01191 4944 ft 152 kts 165°
2026-04-21 13:09 -4.27754 105.01421 4943 ft 152 kts 165°
2026-04-21 13:09 -4.28783 105.01650 4946 ft 151 kts 164°
2026-04-21 13:09 -4.29812 105.01880 4944 ft 152 kts 165°
2026-04-21 13:09 -4.30842 105.02110 4941 ft 152 kts 165°
2026-04-21 13:10 -4.31876 105.02340 4941 ft 152 kts 165°
2026-04-21 13:10 -4.32911 105.02571 4940 ft 153 kts 164°
2026-04-21 13:10 -4.33948 105.02803 4940 ft 153 kts 164°
2026-04-21 13:10 -4.34986 105.03034 4943 ft 153 kts 165°
2026-04-21 13:11 -4.36025 105.03266 4942 ft 153 kts 166°
2026-04-21 13:11 -4.37065 105.03498 4943 ft 153 kts 165°
2026-04-21 13:11 -4.38102 105.03729 4943 ft 153 kts 165°
2026-04-21 13:11 -4.39138 105.03960 4944 ft 152 kts 165°
2026-04-21 13:12 -4.40173 105.04191 4944 ft 152 kts 165°
2026-04-21 13:12 -4.41209 105.04422 4943 ft 153 kts 165°
2026-04-21 13:12 -4.42242 105.04653 4942 ft 152 kts 165°
2026-04-21 13:12 -4.43274 105.04883 4944 ft 152 kts 166°
2026-04-21 13:13 -4.44306 105.05113 4943 ft 152 kts 165°
2026-04-21 13:13 -4.45343 105.05345 4944 ft 154 kts 166°
2026-04-21 13:13 -4.46387 105.05578 4945 ft 154 kts 166°
2026-04-21 13:13 -4.47430 105.05810 4947 ft 153 kts 165°
2026-04-21 13:14 -4.48460 105.06042 4948 ft 154 kts 165°
2026-04-21 13:14 -4.49502 105.06277 4948 ft 154 kts 165°
2026-04-21 13:14 -4.50551 105.06511 4948 ft 154 kts 165°
2026-04-21 13:14 -4.51595 105.06743 4945 ft 153 kts 165°
2026-04-21 13:15 -4.52637 105.06976 4944 ft 154 kts 165°
2026-04-21 13:15 -4.53683 105.07209 4944 ft 154 kts 165°
2026-04-21 13:15 -4.54731 105.07443 4940 ft 155 kts 165°
2026-04-21 13:15 -4.55779 105.07677 4942 ft 154 kts 165°
2026-04-21 13:16 -4.56827 105.07911 4943 ft 155 kts 165°
2026-04-21 13:16 -4.57879 105.08145 4943 ft 155 kts 164°
2026-04-21 13:16 -4.58936 105.08382 4943 ft 156 kts 165°
2026-04-21 13:16 -4.59992 105.08617 4941 ft 155 kts 165°
2026-04-21 13:17 -4.61035 105.08850 4942 ft 154 kts 165°
2026-04-21 13:17 -4.62080 105.09084 4940 ft 154 kts 164°
2026-04-21 13:17 -4.63124 105.09316 4942 ft 154 kts 163°
2026-04-21 13:17 -4.64169 105.09549 4946 ft 154 kts 164°
2026-04-21 13:18 -4.65214 105.09783 4944 ft 154 kts 165°
2026-04-21 13:18 -4.66259 105.10016 4947 ft 154 kts 164°
2026-04-21 13:18 -4.67312 105.10251 4945 ft 155 kts 164°
2026-04-21 13:18 -4.68368 105.10487 4945 ft 156 kts 164°
2026-04-21 13:19 -4.69423 105.10723 4946 ft 155 kts 165°
2026-04-21 13:19 -4.70478 105.10958 4944 ft 155 kts 165°
2026-04-21 13:19 -4.71529 105.11193 4942 ft 155 kts 165°
2026-04-21 13:19 -4.72577 105.11427 4946 ft 155 kts 165°
2026-04-21 13:20 -4.73271 105.11581 4943 ft 154 kts 165°
2026-04-21 13:20 -4.74671 105.11894 4949 ft 155 kts 165°
2026-04-21 13:20 -4.75734 105.12133 4952 ft 158 kts 164°
2026-04-21 13:20 -4.76813 105.12374 4947 ft 158 kts 164°
2026-04-21 13:21 -4.77879 105.12611 4944 ft 156 kts 164°
2026-04-21 13:21 -4.78934 105.12847 4949 ft 155 kts 164°
2026-04-21 13:21 -4.79990 105.13083 4947 ft 156 kts 164°
2026-04-21 13:21 -4.81045 105.13318 4946 ft 155 kts 164°
2026-04-21 13:22 -4.82097 105.13553 4948 ft 155 kts 165°
2026-04-21 13:22 -4.83148 105.13788 4939 ft 155 kts 165°
2026-04-21 13:22 -4.84202 105.14023 4939 ft 155 kts 165°
2026-04-21 13:22 -4.85246 105.14256 4940 ft 153 kts 165°
2026-04-21 13:23 -4.86276 105.14486 4940 ft 154 kts 165°
2026-04-21 13:23 -4.87321 105.14720 4939 ft 154 kts 164°
2026-04-21 13:23 -4.88370 105.14954 4938 ft 155 kts 164°
2026-04-21 13:23 -4.89419 105.15189 4935 ft 154 kts 164°
2026-04-21 13:24 -4.90469 105.15423 4927 ft 156 kts 164°
2026-04-21 13:24 -4.91544 105.15665 4867 ft 160 kts 164°
2026-04-21 13:24 -4.92648 105.15913 4752 ft 164 kts 164°
2026-04-21 13:24 -4.93765 105.16163 4633 ft 165 kts 165°
2026-04-21 13:25 -4.94879 105.16413 4515 ft 163 kts 165°
2026-04-21 13:25 -4.95991 105.16661 4393 ft 164 kts 165°
2026-04-21 13:25 -4.97107 105.16910 4272 ft 164 kts 165°
2026-04-21 13:25 -4.98219 105.17159 4152 ft 164 kts 165°
2026-04-21 13:26 -4.99331 105.17407 4032 ft 164 kts 164°
2026-04-21 13:26 -5.00447 105.17656 3948 ft 163 kts 165°
2026-04-21 13:26 -5.01542 105.17900 3946 ft 160 kts 163°
2026-04-21 13:26 -5.02622 105.18141 3947 ft 159 kts 164°
2026-04-21 13:27 -5.03694 105.18380 3947 ft 157 kts 165°
2026-04-21 13:27 -5.04758 105.18617 3944 ft 156 kts 165°
2026-04-21 13:27 -5.05815 105.18853 3941 ft 155 kts 165°
2026-04-21 13:27 -5.06868 105.19088 3919 ft 157 kts 164°
2026-04-21 13:28 -5.07944 105.19331 3799 ft 160 kts 165°
2026-04-21 13:28 -5.09035 105.19577 3684 ft 161 kts 165°
2026-04-21 13:28 -5.10136 105.19823 3562 ft 163 kts 165°
2026-04-21 13:28 -5.11246 105.20071 3443 ft 164 kts 165°
2026-04-21 13:29 -5.12360 105.20320 3327 ft 164 kts 165°
2026-04-21 13:29 -5.13477 105.20570 3212 ft 165 kts 166°
2026-04-21 13:29 -5.14595 105.20821 3094 ft 164 kts 165°
2026-04-21 13:29 -5.15717 105.21061 2975 ft 165 kts 168°
2026-04-21 13:30 -5.16845 105.21306 2850 ft 166 kts 163°
2026-04-21 13:30 -5.17970 105.21573 2729 ft 166 kts 164°
2026-04-21 13:30 -5.19098 105.21827 2602 ft 166 kts 165°
2026-04-21 13:30 -5.20218 105.22064 2375 ft 163 kts 168°
2026-04-21 13:31 -5.21329 105.22311 2264 ft 164 kts 161°
2026-04-21 13:31 -5.22447 105.22577 2179 ft 168 kts 163°
2026-04-21 13:31 -5.23573 105.22837 2062 ft 166 kts 165°
2026-04-21 13:31 -5.24689 105.23072 1951 ft 166 kts 164°
2026-04-21 13:32 -5.25801 105.23321 1937 ft 162 kts 165°
2026-04-21 13:32 -5.26904 105.23552 1849 ft 162 kts 173°
2026-04-21 13:32 -5.27920 105.23321 1753 ft 137 kts 211°
2026-04-21 13:32 -5.28425 105.22718 1559 ft 93 kts 261°
2026-04-21 13:33 -5.27984 105.22502 1118 ft 107 kts 356°
2026-04-21 13:33 -5.27534 105.21892 749 ft 103 kts 285°
2026-04-21 13:33 -5.27492 105.21435 714 ft 89 kts 289°
2026-04-21 13:33 -5.26946 105.21248 673 ft 76 kts 311°
2026-04-21 13:34 -5.26828 105.20901 665 ft 76 kts 302°
2026-04-21 13:34 -5.26552 105.20459 683 ft 78 kts 280°
2026-04-21 13:34 -5.26479 105.20062 967 ft 54 kts 292°
2026-04-21 13:34 -5.26386 105.19587 894 ft 66 kts 351°
2026-04-21 13:35 -5.25898 105.19466 793 ft 83 kts 332°
2026-04-21 13:35 -5.25517 105.19003 397 ft 88 kts 313°
2026-04-21 13:35 -5.25116 105.18640 272 ft 66 kts 321°
2026-04-21 13:35 -5.24822 105.18393 267 ft 46 kts 321°
2026-04-21 13:36 -5.24619 105.18221 266 ft 32 kts 322°
2026-04-21 13:36 -5.24485 105.18106 265 ft 18 kts 320°
2026-04-21 13:36 -5.24418 105.18051 266 ft 9 kts 321°
2026-04-21 13:36 -5.24379 105.18014 266 ft 9 kts 314°
2026-04-21 13:37 -5.24311 105.17953 266 ft 17 kts 319°
2026-04-21 13:37 -5.24303 105.17897 266 ft 8 kts 228°
2026-04-21 13:37 -5.24330 105.17867 267 ft 4 kts 231°
2026-04-21 13:37 -5.24366 105.17854 267 ft 8 kts 147°
2026-04-21 13:38 -5.24401 105.17845 267 ft 4 kts 230°
2026-04-21 13:38 -5.24415 105.17827 267 ft 3 kts 230°
2026-04-21 13:38 -5.24424 105.17817 267 ft 1 kts 230°